Flag for Austria Weather past 2 weeks in St. Johann im Pongau, Salzburg, Austria

Now
57 °F

Partly cloudy.


Feels Like: 54 °F
Forecast: 37 / 65 °F
Wind: 13 mph from Northwest

Location: Salzburg-Flughafen

Current Time: Apr 28, 2015 at 4:22:44 AM

Latest Report: Apr 28, 2015 at 3:50 AM


Visibility: N/A

Pressure: 29.56 "Hg

Humidity: 77%

Dew point: 50 °F

Location of St. Johann im PongauLocation

Historic Weather in St. Johann im Pongau — Graph

°F

St. Johann im Pongau temperature yesterday

Maximum temperature yesterday: 77 °F (at 2:20 PM)
Minimum temperature yesterday: 48 °F (at 12:50 AM)
Average temperature yesterday: 63 °F

Past Weeks' High & Low Weather Summary

 TemperatureHumidityPressure
High77 °F (Apr 27, 2:20 PM)100% (Apr 17, 7:20 PM)30.42 "Hg (Apr 17, 7:20 PM)
Low30 °F (Apr 19, 4:50 AM)17% (Apr 15, 4:20 PM)29.45 "Hg (Apr 27, 7:20 PM)
Average54 °F61%30.06 "Hg
* Reported Apr 13 2:20 AM — Apr 28 2:50 AM, St. Johann im Pongau, Weather by CustomWeather, © 2015

Note: Actual official high and low records may vary slightly from our data, if they occured in-between our weather recording intervals... More about our weather records

Advertising

St. Johann im Pongau weather history for previous 24 hours

 ConditionsComfort  
Time TempWeatherWind HumidityBarometerVisibility
2:50 AM
Tue, Apr 28
59 °FPartly cloudy.6 mph48%29.53 "HgN/A
2:20 AM59 °FPartly cloudy.2 mph51%29.53 "HgN/A
1:50 AM59 °FPassing clouds.8 mph51%29.53 "HgN/A
1:20 AM61 °FPassing clouds.12 mph45%29.50 "HgN/A
12:50 AM61 °FPassing clouds.15 mph45%29.50 "HgN/A
12:20 AM61 °FPassing clouds.14 mph45%29.50 "HgN/A
11:50 PM
Mon, Apr 27
61 °FClear.15 mph45%29.50 "Hg10 mi
11:20 PM63 °FMild.14 mph42%29.50 "HgN/A
10:50 PM61 °FPassing clouds.13 mph48%29.50 "HgN/A
10:20 PM63 °FPassing clouds.13 mph42%29.50 "HgN/A
9:50 PM63 °FPassing clouds.13 mph42%29.50 "HgN/A
9:20 PM64 °FPassing clouds.15 mph40%29.50 "HgN/A
8:50 PM66 °FPartly sunny.12 mph37%29.47 "HgN/A
8:20 PM66 °FPartly sunny.14 mph37%29.47 "HgN/A
7:50 PM68 °FScattered clouds.15 mph35%29.47 "HgN/A
7:20 PM70 °FScattered clouds.15 mph35%29.45 "HgN/A
6:50 PM70 °FPartly sunny.14 mph35%29.47 "HgN/A
6:20 PM70 °FScattered clouds.13 mph35%29.47 "HgN/A
5:50 PM70 °FScattered clouds.12 mph38%29.47 "HgN/A
5:20 PM72 °FScattered clouds.8 mph36%29.47 "HgN/A
4:50 PM72 °FScattered clouds.12 mph33%29.47 "HgN/A
4:20 PM75 °FScattered clouds.10 mph29%29.50 "HgN/A
3:50 PM72 °FScattered clouds.8 mph38%29.50 "HgN/A
3:20 PM73 °FScattered clouds.7 mph31%29.50 "HgN/A
2:50 PM75 °FScattered clouds.7 mph31%29.53 "HgN/A
2:20 PM77 °FScattered clouds.7 mph34%29.53 "HgN/A
1:50 PM73 °FScattered clouds.3 mph36%29.53 "HgN/A
1:20 PM75 °FScattered clouds.5 mph31%29.53 "HgN/A
12:50 PM73 °FPartly sunny.10 mph31%29.56 "HgN/A
12:20 PM73 °FPartly sunny.6 mph36%29.56 "HgN/A
11:50 AM73 °FPartly sunny.5 mph31%29.56 "HgN/A
11:20 AM72 °FPartly sunny.7 mph41%29.56 "HgN/A
10:50 AM72 °FPassing clouds.8 mph38%29.59 "HgN/A
10:20 AM70 °FSunny.9 mph40%29.59 "Hg10 mi
9:50 AM68 °FPassing clouds.9 mph43%29.59 "HgN/A
9:20 AM66 °FPassing clouds.10 mph46%29.59 "HgN/A
8:50 AM63 °FPassing clouds.12 mph52%29.59 "HgN/A
8:20 AM61 °FSunny.10 mph55%29.59 "Hg10 mi
7:50 AM59 °FPassing clouds.9 mph55%29.59 "HgN/A
7:20 AM57 °FPassing clouds.9 mph59%29.59 "HgN/A
6:50 AM55 °FPassing clouds.7 mph63%29.59 "HgN/A
6:20 AM50 °FPassing clouds.5 mph82%29.62 "HgN/A
5:50 AM50 °FClear.2 mph82%29.62 "Hg10 mi
5:20 AM52 °FPassing clouds.1 mph77%29.62 "HgN/A
4:50 AM48 °FPassing clouds.6 mph87%29.62 "HgN/A
4:20 AM48 °FPassing clouds.2 mph87%29.62 "HgN/A
Weather by CustomWeather, © 2015

See weather overviewHow to use our weather pages